Zurück zum Katalog

CZ-6A DEB

AktivPO
NORAD 56600·DEBRIS·🇨🇳 China

Gestartet Nov 11, 2022 von Taiyuan Satellite Launch Center

Loading…

Nächste Überflüge (nächste 24 Stunden)

TLE

AktuellSource: Space-Track

Epoche: Sep 13, 2026, 16:46 UTC

1 56600U 22151ADY 26256.69913067  .00042898  00000-0  28304-2 0  9990
2 56600  98.6181 344.2374 0031619 301.5382  58.2756 15.06899237189844

Verfolge CZ-6A DEB in Echtzeit mit AllMySat

Download on the App Store